Location: Brabourne
(51.1333°N, 1.0000°E)
Time: 12:13:31
(UTC+00:00)

IRS-1D - Pass Details

Date: 26 October 2021
Orbit: 739 x 817 km, 98.6° (Epoch: 30 November)

Event Time Altitude Azimuth Distance (km) Brightness Sun altitude
Rises 02:45:15 0° 14° (NNE) 3,266 7.3 -36.3°
Reaches altitude 10° 02:47:35 10° 14° (NNE) 2,322 6.4 -35.9°
Enters shadow 02:49:07 20° 13° (NNE) 1,726 5.6 -35.7°
